CZ-4C DEB, 40114

Orbit data source: Space-Track

CZ-4C DEB, 40114 is space debris in LEO originally from a launch on Sat, 09 Aug 2014 UTC launched from the Jiuquan Satellite Launch Center, China (JSC). Debris objects in space refer to the collection of defunct objects orbiting the Earth. Examples of debris include non-operational satellites, rocket bodies, and fragments generated from explosions, collisions, or faulty payload assembly.

Loading next visibility...
Identifier
40114, 2014-047F
Orbit
LEO
Last TLE update
1 day ago
Origin
Manufacturer
CAST
Mission
Spacecraft
Bus & Motor
Unknown
Mass
Unknown
Launch date (UTC)
2014-08-09 (11 years ago)
Launch vehicle
Unknown
Launch site
Jiuquan Satellite Launch Center, China (JSC)
Object type
Payload
Rocket body
Debris
Shape & HBR
Unknown
Radar Cross Section
6.100 m², Large (>1 m²)

Expand to show TLE details & history

TLE from 1 day ago
0 CZ-4C DEB
1 40114U 14047F   25181.46556107 -.00000037  00000-0  61930-4 0  9991
2 40114  63.3817 232.0083 0359823  13.3296 347.6934 13.44327712534622
Epoch: 2025-06-30T11:10Z
TLE epoch observation values (Epoch: 2025-06-30T11:10:24.476Z)
Latitude
-0.00005°
Longitude
145.63132°
Altitude
832.747 km
Speed
7.566 km/s
True Right ascension
15h 28m 01s
True Declination
0° 00' 00"
Sunlit
Object was in full shadow at epoch
Visualization orbit readout
Latitude
-63.04372°
Longitude
41.46793°
Altitude
1,192.696 km
Speed
7.22 km/s
Apparent Right ascension
11h 17m 36s
Apparent Declination
-57° 23' 04"
Sunlit
Object is in daylight
Visualization observer readout
Local Sidereal Time
01:08:39
Azimuth
143.555° SSE
Elevation
-64.998°
Doppler factor
1
Orbital elements
Apogee altitude
1,360.825 km
Perigee altitude
823.238 km
Semi-major axis
7,470.168 km
Eccentricity
0.03598
Inclination
63.3817°
RAAN
232.0083°
Arg. of periapsis
13.3296°
True anomaly
Unknown
Mean anomaly
347.6934°
Eccentric anomaly
Unknown
Mean motion
3.36161 °/min
Orbital period
107.09 mins
BSTAR
0.00006193
Loading maneuver chart data...
Loading SW <> Apogee altitude chart data...
Loading historical data...
Loading historical data...
Loading historical data...
Loading historical data...
Loading historical data...
Loading historical data...
Loading historical data...

CZ-4C DEB Visibility forecast

Observer location: undefined°, undefined°

Span
Click to sort rows by Start time (UTC) header in descending order
Start Az.
Max El. time (UTC)
Max El. Az.
Max El.
End time (UTC)
End Az.
14 mins2025-07-01 14:30:42.884Z315.157° NNW2025-07-01 14:36:42.884Z246.812° WSW39.38°2025-07-01 14:44:42.884Z167.849° S
9 mins2025-07-02 04:21:42.884Z180.061° SSW2025-07-02 04:25:42.884Z114.789° SE34.298°2025-07-02 04:30:42.884Z47.867° ENE
9 mins2025-07-02 06:12:42.884Z263.452° W2025-07-02 06:16:42.884Z324.064° NNW27.575°2025-07-02 06:21:42.884Z18.999° NNE
10 mins2025-07-02 11:52:42.884Z354.474° N2025-07-02 11:56:42.884Z36.93° NE23.368°2025-07-02 12:02:42.884Z91.092° ESE
|